This is the latest recevied weather packets stored in our database for station/object W2JGA. If no packets are shown the sender has not sent any weather packets the latest 10 day(s).
| Time | Temp. | Humidity | Pressure | Rain* | Wind** | Luminosity | Snow |
|---|---|---|---|---|---|---|---|
| 1777074710 | 30.56° C | 18% | 1010.3 hPa | 0 mm | - | 376 W/m² | - |
| 1777074410 | 30.56° C | 18% | 1010.6 hPa | 0 mm | - | 356 W/m² | - |
| 1777074108 | 30.56° C | 17% | 1010.3 hPa | 0 mm | - | 372 W/m² | - |
| 1777073805 | 30.56° C | 17% | 1010 hPa | 0 mm | - | 425 W/m² | - |
| 1777073505 | 30.56° C | 18% | 1010.3 hPa | 0 mm | - | 441 W/m² | - |
| 1777073201 | 30.56° C | 17% | 1010.3 hPa | 0 mm | - | 455 W/m² | - |
| 1777072898 | 30.56° C | 17% | 1010.3 hPa | 0 mm | - | 466 W/m² | - |
| 1777072592 | 31.11° C | 16% | 1010.3 hPa | 0 mm | - | 462 W/m² | - |
| 1777072292 | 30.56° C | 17% | 1010.6 hPa | 0 mm | - | 484 W/m² | - |
| 1777071987 | 30.56° C | 17% | 1010.3 hPa | 0 mm | - | 494 W/m² | - |
| 1777071683 | 30.56° C | 17% | 1010.6 hPa | 0 mm | - | 509 W/m² | - |
| 1777071379 | 31.11° C | 17% | 1010.3 hPa | 0 mm | - | 526 W/m² | - |
| 1777071074 | 30.56° C | 16% | 1010.3 hPa | 0 mm | - | 542 W/m² | - |
| 1777070771 | 30.56° C | 16% | 1010.6 hPa | 0 mm | - | 526 W/m² | - |
| 1777070468 | 30.56° C | 16% | 1010.6 hPa | 0 mm | - | 466 W/m² | - |
| 1777070167 | 30.56° C | 16% | 1010.6 hPa | 0 mm | - | 448 W/m² | - |
| 1777069861 | 30.56° C | 16% | 1010.6 hPa | 0 mm | - | 521 W/m² | - |
| 1777069561 | 30.56° C | 15% | 1011 hPa | 0 mm | - | 591 W/m² | - |
| 1777069257 | 30.56° C | 16% | 1010.6 hPa | 0 mm | - | 636 W/m² | - |
| 1777068953 | 30.56° C | 16% | 1011 hPa | 0 mm | - | 616 W/m² | - |
| 1777068650 | 31.11° C | 15% | 1011 hPa | 0 mm | - | 642 W/m² | - |
| 1777068349 | 31.11° C | 15% | 1011 hPa | 0 mm | - | 637 W/m² | - |
| 1777068045 | 30.56° C | 15% | 1011 hPa | 0 mm | - | 637 W/m² | - |
| 1777067744 | 30.56° C | 16% | 1011 hPa | 0 mm | - | 610 W/m² | - |
| 1777067439 | 30° C | 16% | 1011 hPa | 0 mm | - | 606 W/m² | - |
* Rain latest hour (hover to see other rain measurements)
** Current wind speed in m/s (hover to see current wind gust speed)